Regional Weather Roundup
Issued by NWS

Home | Current Version | Previous Version | Graphics & Text | Print | Product List | Glossary On
Versions: 1 2 3 4 5 6 7 8 9 10 11 12 13 14 15 16 17 18 19 20 21 22 23 24 25 26 27 28 29 30 31 32 33 34 35 36 37 38 39 40 41 42 43 44 45 46 47 48 49 50
000
ASUS43 KLSX 020407
RWRMO

WEATHER SUMMARY FOR MISSOURI
NATIONAL WEATHER SERVICE SPRINGFIELD MO
1100 PM CDT MON SEP 01 2014

NOTE: "FAIR" INDICATES FEW OR NO CLOUDS BELOW 12,000 FEET WITH NO
       SIGNIFICANT WEATHER AND/OR OBSTRUCTIONS TO VISIBILITY.
       CURRENT SKY AND/OR WEATHER CONDITIONS ARE NOT AVAILABLE FOR
       CHILLICOTHE AND FARMINGTON.

MOZ001>031-035>038-043-044-053-054-020500-
...NORTHERN AND WESTERN MISSOURI...

CITY           SKY/WX    TMP DP  RH WIND       PRES   REMARKS
KANSAS CTY INT CLOUDY    70  69  97 S7        29.89S
KANSAS C DTWN  CLOUDY    73  69  87 CALM      29.89R
LEE`S SUMMIT   LGT RAIN  71  70  96 SE3       29.91S
ST JOSEPH      PTCLDY    67  65  93 S6        29.88S
CHILLICOTHE      N/A     70  68  93 CALM      29.89S
KIRKSVILLE     PTCLDY    69  66  90 CALM      29.90S

$$
MOZ066>068-077>081-088>096-101>105-020500-
...SOUTHWEST MISSOURI...

CITY           SKY/WX    TMP DP  RH WIND       PRES   REMARKS
SPRINGFIELD    CLOUDY    79  70  74 SE6       29.92R
JOPLIN         TSTM      75  74  96 NW9       29.93R FOG

$$
MOZ032>034-039>042-045>050-055>058-069>072-020500-
...CENTRAL MISSOURI...

CITY           SKY/WX    TMP DP  RH WIND       PRES   REMARKS
COLUMBIA       LGT RAIN  71  70  96 CALM      29.90R
JEFFERSON CITY CLOUDY    72  70  93 CALM      29.90S
ROLLA          RAIN      73  69  87 NW6       29.90R
SEDALIA        TSTM      72  70  93 S3        29.92R FOG
WHITEMAN AFB   TSTM      72  70  94 NE1       29.90R
OSAGE BEACH    CLOUDY    72  70  94 NW6       29.91S

$$
MOZ051-052-059>065-020500-
...EAST CENTRAL MISSOURI...

CITY           SKY/WX    TMP DP  RH WIND       PRES   REMARKS
ST LOUIS INTL  TSTM      70  66  88 W8        29.97R FOG
SPIRIT OF STL  TSTM      70  68  94 E9        29.92R VSB 1
ST CHARLES     CLOUDY    69  68  96 SE6       29.91F THUNDER FOG

$$
MOZ072>076-082>087-097>100-106>115-020500-
...SOUTH CENTRAL AND SOUTHEAST MISSOURI...

CITY           SKY/WX    TMP DP  RH WIND       PRES   REMARKS
CAPE GIRARDEAU PTCLDY    78  72  81 S9        29.92S
FARMINGTON     CLOUDY    79  70  73 S16       29.92F
POPLAR BLUFF   PTCLDY    77  70  79 S6        29.92R
WEST PLAINS    CLOUDY    79  69  71 S9        29.98R

$$



USA.gov is the U.S. government's official web portal to all federal, state and local government web resources and services.